Temp
75 82 85 79 63 63 59 63 71 66 68 76 77 76 75 79 74 66 82 83 88 86 81 80 74 76 75 75 75 75 76 76 76 76 76 76 76 76 76 76 76 77 77 77 77 76 76 76 76
84 82 81 74 58 54 58 69 63 68 76 76 75 75 73 72 80 77 79 83 87 84 81 82 72 75 75 75 75 75 76 76 76 76 76 76 76 76 75 75 75 76 76 77 76 76 75 74 74
80 82 72 65 60 54 59 67 68 73 77 74 74 77 75 74 78 82 84 85 87 81 81 78 72 74 74 74 75 75 75 75 76 76 76 76 75 75 74 74 74 75 75 76 75 75 74 74 74
77 76 73 59 58 65 66 67 70 72 75 76 76 71 77 79 78 84 84 85 84 81 80 73 73 74 74 74 74 74 75 75 75 75 75 75 74 74 74 73 73 74 74 74 74 73 72 72 72
77 74 60 57 59 66 69 70 72 71 73 74 74 71 74 77 81 82 83 82 79 80 78 79 72 73 74 74 74 74 74 74 74 74 74 73 73 73 72 72 72 71 71 71 71 70 70 70 69
67 71 56 54 60 67 69 72 71 71 74 75 70 72 75 81 78 81 81 79 81 82 79 78 69 70 72 72 73 73 73 73 73 73 72 72 71 71 71 71 70 70 70 69 69 68 68 68 67
64 62 57 59 61 65 67 71 68 69 72 73 77 69 77 77 79 79 80 81 82 81 80 77 77 72 66 68 69 70 70 70 70 70 69 68 68 68 68 68 68 68 68 67 67 66 65 66 65
68 65 58 60 59 61 69 67 71 70 69 81 81 68 70 81 78 77 79 78 77 77 77 76 73 71 71 69 64 65 66 67 66 65 64 64 64 64 65 64 65 66 65 65 64 64 63 63 63
69 57 53 58 60 64 68 63 73 77 72 76 77 76 75 80 74 71 72 73 75 72 72 71 69 66 65 65 62 62 62 63 62 62 62 64 71 69 65 60 61 62 62 62 62 62 62 62 64
60 55 57 67 69 66 69 67 70 69 70 71 72 76 74 78 66 66 68 71 72 72 68 71 67 64 64 65 65 68 67 70 70 69 70 70 69 67 65 58 58 59 59 61 62 62 62 65 69
60 53 64 67 69 67 66 67 71 67 64 71 71 76 75 75 69 64 67 75 72 71 65 67 65 63 64 64 68 68 71 70 69 68 68 68 68 67 68 68 67 66 61 67 66 67 67 64 65
55 61 63 64 67 64 62 68 65 67 68 75 77 76 76 72 73 69 66 70 69 62 63 64 65 64 65 66 68 70 70 69 68 68 67 66 66 65 66 66 65 64 64 63 64 64 63 63 64
55 58 63 66 64 64 65 61 63 65 71 74 75 71 72 74 74 75 73 71 68 65 63 63 65 66 66 68 71 71 70 70 69 67 67 68 67 64 65 64 65 64 64 63 62 62 61 61 62
60 58 59 62 62 63 59 60 63 65 69 70 71 70 72 73 74 74 73 72 69 68 66 65 66 68 69 69 69 69 69 69 69 67 66 66 66 65 64 64 63 63 62 61 60 60 60 60 61
56 51 57 59 61 59 62 54 56 65 68 66 68 71 72 74 76 74 74 72 70 69 69 68 69 70 69 68 68 68 67 67 66 65 64 64 64 64 63 63 62 61 60 60 61 60 60 60 61
50 53 46 58 59 62 58 48 62 70 66 64 67 70 70 73 75 77 76 73 71 70 68 67 68 66 67 67 66 66 65 66 64 64 63 62 61 63 62 61 60 59 60 59 59 59 57 58 58
49 42 47 52 61 59 55 51 64 66 66 63 67 69 70 71 74 76 76 73 72 70 68 66 66 65 66 66 66 65 64 63 64 64 62 60 59 59 61 60 58 57 58 58 56 57 56 55 56
44 44 47 47 54 54 52 52 59 64 64 62 63 67 67 69 71 75 77 75 73 71 69 67 66 66 65 64 63 62 61 61 62 62 61 59 59 58 59 57 56 56 56 56 55 53 55 54 54
48 45 44 50 56 50 49 52 57 63 63 62 63 63 66 67 71 72 73 74 71 71 70 68 65 65 63 60 59 58 57 58 59 59 57 57 57 56 56 56 56 55 54 52 53 52 52 53 53
45 42 43 49 53 50 49 49 56 60 61 63 64 64 65 66 68 69 70 72 69 69 68 67 65 64 62 61 61 62 61 59 59 58 56 56 55 54 54 54 53 53 53 52 51 50 49 52 51
44 41 42 43 49 52 48 45 51 58 62 64 65 65 64 65 65 66 66 68 68 67 67 66 65 64 62 62 62 61 59 58 55 54 53 53 53 52 52 52 52 51 51 50 49 49 48 47 51
38 49 47 44 41 35 47 32 49 57 59 62 63 65 65 64 66 66 67 66 66 65 66 66 65 63 63 62 58 56 54 53 56 54 54 51 52 52 51 50 50 50 50 48 48 49 48 47 47
43 47 45 44 40 40 42 36 46 56 52 59 61 62 63 63 61 61 64 66 66 64 64 65 65 63 62 61 58 56 58 59 60 56 51 50 50 50 49 49 48 48 49 47 46 46 46 47 46
49 45 44 43 40 28 39 40 42 51 55 57 58 58 58 57 58 59 60 63 65 63 62 63 63 61 60 59 58 58 59 57 54 51 49 49 49 48 48 48 48 48 47 46 46 46 45 45 45
44 39 29 27 25 27 40 37 44 53 57 54 54 56 58 57 56 55 55 58 60 59 59 60 61 59 58 57 58 59 59 55 53 51 50 49 48 48 46 47 46 47 47 46 45 45 44 44 43
40 38 30 24 28 33 40 31 46 55 56 56 57 56 58 57 55 54 53 54 56 57 57 59 58 57 56 55 56 58 57 54 54 53 53 51 50 49 48 47 47 46 46 45 45 44 44 43 41
38 32 44 31 29 26 36 43 51 55 53 55 54 55 55 55 55 53 52 53 54 54 55 56 56 55 54 54 55 55 54 53 53 53 53 52 51 49 47 46 45 45 45 45 44 43 42 42 41
38 43 31 31 22 22 32 34 39 45 47 49 50 51 53 55 56 54 51 50 52 52 54 55 55 54 53 54 54 52 52 52 52 51 49 48 47 46 45 45 45 44 44 44 44 41 41 39 39
36 32 33 35 33 25 25 34 49 46 46 46 48 49 50 52 55 55 52 50 49 51 52 52 53 52 51 51 51 50 49 49 49 48 48 46 45 44 44 44 43 43 43 43 43 41 41 39 39
38 34 33 24 26 32 30 32 53 50 48 47 46 47 49 50 53 54 54 50 48 47 49 50 50 49 49 51 49 47 47 46 45 45 44 44 42 43 42 42 42 42 42 42 42 40 41 39 38
MSLP
1012.65 1012.02 1011.36 1010.87 1010.41 1008.60 1007.11 1006.65 1006.48 1006.81 1006.72 1006.40 1006.65 1006.15 1005.81 1005.50 1005.37 1006.80 1007.73 1008.18 1007.85 1008.46 1009.74 1010.58 1010.92 1011.31 1011.72 1012.25 1012.62 1012.83 1012.96 1013.05 1013.21 1013.39 1013.57 1013.87 1014.16 1014.31 1014.50 1014.68 1014.76 1014.77 1014.84 1014.98 1015.14 1015.24 1015.37 1015.39 1015.55
1011.68 1011.58 1011.20 1010.01 1009.29 1007.55 1006.66 1006.56 1006.73 1006.96 1006.28 1006.97 1006.90 1006.80 1006.46 1005.90 1006.22 1007.34 1007.85 1008.29 1008.38 1008.94 1009.83 1010.38 1011.11 1011.40 1011.89 1012.25 1012.65 1012.94 1013.22 1013.29 1013.42 1013.65 1013.81 1014.00 1014.25 1014.47 1014.77 1014.98 1015.14 1015.23 1015.27 1015.40 1015.53 1015.60 1015.73 1015.68 1015.75
1011.94 1011.42 1010.56 1009.33 1008.15 1006.86 1006.22 1006.26 1006.69 1006.66 1006.56 1006.96 1006.71 1006.90 1006.54 1006.27 1006.93 1007.02 1007.86 1008.23 1008.50 1009.42 1009.87 1010.45 1011.29 1011.64 1011.99 1012.35 1012.76 1013.07 1013.31 1013.52 1013.64 1013.77 1014.04 1014.27 1014.47 1014.64 1014.91 1015.11 1015.33 1015.45 1015.58 1015.67 1015.85 1016.02 1016.09 1016.01 1016.11
1011.60 1011.20 1010.50 1008.58 1006.91 1006.43 1006.42 1006.79 1007.06 1006.68 1006.64 1006.98 1006.83 1006.47 1007.02 1007.37 1007.35 1007.29 1008.13 1008.48 1008.82 1009.53 1010.23 1011.03 1011.39 1011.91 1012.23 1012.54 1012.76 1013.16 1013.46 1013.68 1013.79 1014.04 1014.23 1014.49 1014.77 1014.97 1015.16 1015.36 1015.54 1015.67 1015.80 1015.91 1016.03 1016.28 1016.48 1016.43 1016.43
1011.37 1009.99 1009.14 1007.66 1007.00 1006.69 1006.65 1007.11 1007.05 1006.64 1006.45 1006.59 1006.88 1006.34 1006.62 1007.55 1007.88 1007.99 1008.25 1008.91 1009.31 1009.70 1010.47 1011.19 1011.68 1011.99 1012.45 1012.73 1012.92 1013.22 1013.53 1013.86 1014.08 1014.37 1014.63 1014.86 1015.05 1015.31 1015.56 1015.80 1016.01 1016.18 1016.26 1016.46 1016.55 1016.66 1016.70 1016.75 1016.82
1010.44 1009.59 1008.15 1006.97 1006.46 1006.42 1006.57 1007.04 1007.37 1007.00 1006.55 1006.40 1006.96 1006.69 1006.57 1007.33 1008.00 1008.12 1008.67 1009.28 1009.44 1009.71 1010.35 1011.17 1012.06 1012.32 1012.56 1012.91 1013.19 1013.39 1013.66 1013.98 1014.31 1014.70 1015.04 1015.29 1015.44 1015.73 1016.04 1016.20 1016.31 1016.55 1016.76 1016.86 1016.98 1017.03 1017.02 1017.04 1017.06
1009.82 1009.04 1007.72 1006.90 1006.17 1005.69 1006.23 1007.36 1007.39 1007.02 1006.46 1006.07 1006.44 1006.56 1006.60 1007.30 1008.16 1008.64 1008.90 1009.24 1009.49 1009.95 1010.48 1011.17 1011.78 1012.48 1012.83 1013.17 1013.50 1013.87 1014.03 1014.17 1014.68 1015.15 1015.56 1015.83 1016.00 1016.15 1016.49 1016.71 1016.72 1016.80 1017.00 1017.17 1017.30 1017.34 1017.33 1017.30 1017.23
1010.19 1009.24 1007.90 1007.10 1006.48 1005.90 1006.56 1007.46 1007.62 1007.21 1006.39 1006.04 1006.00 1006.26 1006.67 1006.27 1008.21 1008.89 1008.99 1009.53 1010.16 1010.50 1010.95 1011.28 1011.86 1012.53 1013.17 1013.52 1013.87 1014.26 1014.52 1014.75 1015.13 1015.72 1016.14 1016.43 1016.58 1016.82 1016.93 1017.06 1017.21 1017.25 1017.41 1017.44 1017.56 1017.64 1017.66 1017.48 1017.38
1010.92 1009.32 1007.64 1007.01 1006.45 1006.24 1007.13 1007.46 1007.05 1006.84 1006.55 1006.16 1006.30 1006.71 1007.40 1007.30 1008.61 1009.36 1009.35 1009.79 1010.17 1010.81 1011.33 1011.68 1012.33 1013.02 1013.46 1013.98 1014.38 1014.68 1015.01 1015.36 1015.70 1016.15 1016.44 1016.45 1016.36 1016.81 1017.23 1017.60 1017.62 1017.68 1017.72 1017.76 1017.79 1017.75 1017.60 1017.32 1017.14
1010.55 1009.11 1007.70 1007.12 1006.62 1006.58 1006.91 1007.34 1006.81 1006.74 1006.41 1006.20 1006.45 1006.96 1007.66 1007.67 1009.05 1009.35 1009.39 1009.38 1009.84 1010.54 1011.44 1011.76 1012.65 1013.29 1013.73 1014.25 1014.33 1014.61 1015.29 1015.26 1015.55 1015.89 1016.11 1016.40 1016.60 1017.04 1017.29 1017.82 1017.86 1017.91 1017.93 1017.82 1017.77 1017.80 1017.44 1017.21 1016.97
1010.06 1009.05 1008.05 1007.47 1007.41 1007.74 1007.57 1007.34 1007.31 1006.89 1006.20 1005.91 1005.85 1005.99 1006.99 1007.65 1008.74 1009.48 1009.42 1008.97 1009.75 1010.62 1011.73 1011.99 1012.82 1013.31 1013.85 1014.06 1014.02 1014.50 1014.88 1015.30 1015.60 1015.97 1016.36 1016.59 1016.70 1016.95 1017.03 1017.19 1017.33 1017.53 1017.67 1017.49 1017.51 1017.41 1017.39 1017.56 1017.44
1010.27 1009.66 1008.98 1008.41 1008.04 1008.25 1008.01 1007.68 1007.24 1006.97 1006.53 1006.17 1006.02 1006.43 1006.75 1007.46 1007.73 1008.78 1009.36 1009.36 1009.90 1011.02 1011.85 1012.33 1012.77 1013.23 1013.61 1013.75 1013.90 1014.08 1014.84 1015.33 1015.66 1016.06 1016.40 1016.64 1016.78 1016.98 1017.04 1017.13 1017.42 1017.57 1017.73 1017.85 1017.73 1017.76 1017.78 1017.70 1017.50
1010.53 1010.00 1009.33 1008.76 1008.80 1008.53 1008.37 1007.81 1007.42 1006.98 1006.82 1006.77 1006.48 1007.14 1006.98 1007.01 1007.30 1007.70 1008.46 1009.33 1010.04 1010.71 1011.52 1012.07 1012.64 1012.85 1013.26 1013.41 1013.49 1014.03 1014.63 1015.10 1015.49 1016.04 1016.48 1016.56 1016.72 1016.99 1017.04 1017.29 1017.36 1017.61 1017.85 1017.89 1017.85 1017.84 1017.80 1017.71 1017.60
1010.39 1010.26 1009.57 1009.08 1008.64 1008.46 1008.23 1007.54 1007.60 1007.11 1007.09 1006.81 1006.61 1006.76 1006.72 1006.70 1006.86 1007.24 1007.87 1008.46 1009.36 1010.21 1010.97 1011.83 1012.20 1012.62 1012.93 1013.33 1013.39 1013.88 1014.51 1015.03 1015.44 1016.02 1016.57 1016.82 1016.92 1017.07 1017.09 1017.25 1017.45 1017.69 1018.00 1018.07 1018.07 1018.12 1017.99 1017.82 1017.61
1011.31 1010.56 1009.48 1008.54 1008.16 1008.14 1008.16 1007.22 1006.74 1006.58 1006.66 1006.38 1006.21 1005.96 1006.13 1006.12 1006.23 1006.65 1007.19 1007.94 1009.03 1009.88 1010.60 1011.36 1011.70 1012.35 1012.54 1013.11 1013.42 1013.94 1014.72 1015.13 1015.58 1016.22 1016.73 1017.12 1017.18 1017.24 1017.28 1017.37 1017.52 1017.92 1018.10 1018.15 1018.06 1018.06 1017.92 1017.71 1017.49
1011.38 1010.33 1009.00 1007.55 1007.66 1007.35 1008.22 1006.42 1005.77 1005.32 1005.75 1005.75 1005.62 1005.41 1005.49 1005.44 1005.64 1005.97 1006.61 1007.53 1008.52 1009.45 1010.18 1011.13 1011.77 1012.20 1012.47 1013.05 1013.56 1014.07 1014.79 1015.09 1015.72 1016.26 1016.83 1017.34 1017.47 1017.41 1017.44 1017.62 1017.81 1018.28 1018.20 1018.25 1018.16 1018.09 1018.10 1017.89 1017.69
1010.88 1009.63 1008.55 1007.78 1007.33 1007.53 1007.62 1006.10 1005.24 1005.45 1005.22 1005.23 1004.94 1004.73 1004.83 1004.89 1004.83 1005.20 1005.80 1006.83 1007.81 1008.69 1009.72 1010.57 1011.43 1012.12 1012.39 1012.81 1013.51 1014.20 1014.87 1015.30 1015.77 1016.30 1016.81 1017.44 1017.67 1017.85 1017.73 1017.90 1018.22 1018.48 1018.38 1018.43 1018.53 1018.40 1018.40 1018.22 1017.90
1009.76 1009.38 1008.85 1008.12 1007.90 1007.92 1007.25 1006.36 1005.61 1005.36 1005.14 1005.05 1004.87 1004.52 1004.45 1004.27 1004.23 1004.63 1005.25 1006.20 1007.27 1008.10 1009.09 1010.08 1010.98 1011.62 1012.38 1012.76 1013.59 1014.47 1015.09 1015.41 1015.78 1016.32 1016.86 1017.46 1017.74 1018.00 1018.04 1018.18 1018.48 1018.60 1018.56 1018.68 1018.79 1018.78 1018.68 1018.51 1018.22
1010.58 1010.25 1009.36 1008.64 1008.16 1008.04 1007.43 1006.37 1005.27 1004.81 1004.60 1004.29 1004.24 1004.14 1004.02 1003.90 1004.00 1004.51 1005.05 1005.69 1006.81 1007.51 1008.36 1009.25 1010.16 1011.06 1011.89 1012.51 1013.33 1014.12 1014.72 1015.30 1015.78 1016.52 1017.24 1017.48 1017.79 1018.11 1018.20 1018.25 1018.50 1018.77 1018.82 1018.95 1019.07 1018.97 1018.74 1018.47 1018.52
1011.03 1010.54 1009.71 1008.92 1008.47 1008.37 1007.39 1006.13 1005.33 1004.08 1003.72 1003.47 1003.21 1003.21 1003.19 1003.36 1003.60 1004.08 1004.63 1005.18 1006.08 1006.80 1007.54 1008.58 1009.44 1010.34 1011.26 1011.99 1012.73 1013.42 1014.16 1015.05 1015.70 1016.56 1017.13 1017.44 1017.86 1018.15 1018.29 1018.50 1018.75 1018.96 1018.97 1019.01 1019.16 1019.19 1018.98 1018.71 1018.85
1010.98 1010.63 1009.97 1009.53 1008.74 1008.22 1007.41 1005.49 1003.92 1002.89 1002.70 1002.68 1002.35 1002.49 1002.87 1003.00 1003.17 1003.62 1004.19 1004.59 1005.22 1006.05 1006.88 1007.75 1008.58 1009.48 1010.57 1011.44 1012.42 1013.27 1014.17 1015.03 1015.84 1016.50 1017.08 1017.57 1017.85 1018.20 1018.43 1018.74 1018.82 1019.04 1019.17 1019.16 1019.25 1019.35 1019.35 1019.08 1018.99
1010.84 1010.47 1010.12 1009.95 1009.67 1008.52 1008.16 1005.56 1003.88 1002.62 1002.08 1002.03 1001.87 1002.32 1002.69 1003.02 1003.16 1003.42 1003.72 1004.31 1004.84 1005.28 1006.04 1007.05 1008.04 1008.98 1010.03 1010.85 1011.81 1012.62 1013.35 1014.07 1014.74 1015.77 1016.63 1017.39 1017.78 1018.17 1018.45 1018.72 1018.98 1019.15 1019.21 1019.37 1019.43 1019.55 1019.69 1019.54 1019.13
1010.93 1011.06 1010.85 1010.47 1009.97 1009.15 1007.75 1006.84 1003.94 1002.67 1002.30 1001.80 1002.39 1002.94 1003.09 1003.32 1003.76 1003.63 1003.52 1003.56 1004.22 1005.10 1005.64 1006.37 1007.40 1008.52 1009.54 1010.38 1011.21 1012.16 1012.82 1013.35 1014.11 1015.38 1016.45 1017.12 1017.74 1018.17 1018.47 1018.64 1018.95 1019.09 1019.29 1019.61 1019.64 1019.77 1019.85 1019.74 1019.70
1011.37 1011.23 1010.87 1010.77 1010.35 1008.94 1007.27 1006.06 1003.58 1002.20 1001.98 1002.47 1003.31 1004.03 1004.22 1004.37 1004.38 1004.20 1004.00 1003.82 1003.93 1004.88 1005.67 1006.26 1006.80 1007.71 1008.75 1009.79 1010.71 1011.40 1012.00 1012.88 1013.97 1015.10 1015.99 1016.77 1017.48 1018.02 1018.44 1018.64 1018.86 1019.10 1019.45 1019.67 1019.78 1019.97 1020.00 1020.06 1020.15
1011.75 1011.50 1010.96 1010.49 1010.26 1008.22 1007.37 1006.11 1003.71 1003.00 1002.98 1003.92 1004.42 1004.83 1005.01 1005.12 1005.01 1004.90 1004.70 1004.50 1004.58 1005.03 1005.56 1006.04 1006.61 1007.41 1008.34 1009.35 1010.17 1010.85 1011.50 1012.61 1013.54 1014.48 1015.32 1016.17 1016.87 1017.57 1018.18 1018.57 1018.93 1018.92 1019.24 1019.64 1019.86 1019.93 1020.02 1020.22 1020.34
1011.66 1011.69 1010.87 1009.86 1009.08 1008.00 1007.48 1005.78 1003.28 1003.84 1004.07 1004.65 1005.08 1005.51 1005.42 1005.58 1005.73 1005.67 1005.54 1005.40 1005.34 1005.44 1005.80 1006.21 1006.61 1007.40 1008.33 1009.10 1009.88 1010.55 1011.30 1012.43 1013.21 1014.06 1014.83 1015.60 1016.45 1017.19 1017.88 1018.37 1018.78 1018.75 1019.19 1019.52 1019.89 1019.82 1020.10 1020.44 1020.79
1012.25 1012.11 1011.37 1011.06 1010.55 1009.82 1007.21 1005.39 1004.36 1003.87 1004.65 1005.03 1005.44 1005.95 1005.85 1006.07 1006.15 1006.38 1006.37 1006.16 1006.02 1006.19 1006.29 1006.47 1006.93 1007.52 1008.35 1008.92 1009.65 1010.38 1011.24 1012.13 1012.84 1013.82 1014.72 1015.43 1016.21 1017.01 1017.79 1018.22 1018.62 1018.85 1019.21 1019.47 1019.68 1019.85 1020.27 1020.59 1020.81
1013.43 1013.10 1012.45 1012.17 1010.97 1009.15 1006.83 1005.95 1004.84 1004.75 1005.46 1006.02 1006.36 1006.80 1006.73 1006.81 1006.56 1006.67 1007.00 1006.93 1006.82 1006.81 1006.74 1006.94 1007.27 1007.69 1008.38 1008.87 1009.44 1010.09 1010.99 1011.97 1012.76 1013.76 1014.65 1015.43 1016.25 1016.98 1017.65 1018.14 1018.46 1018.97 1019.17 1019.33 1019.60 1019.89 1020.17 1020.50 1020.89
1014.11 1013.89 1013.68 1012.95 1011.58 1009.95 1008.07 1006.08 1005.31 1005.91 1006.70 1007.10 1007.68 1008.09 1008.04 1007.59 1007.22 1007.19 1007.39 1007.56 1007.42 1007.29 1007.16 1007.19 1007.51 1007.93 1008.49 1008.99 1009.61 1010.19 1011.05 1011.96 1012.96 1013.81 1014.55 1015.44 1016.20 1016.80 1017.54 1017.99 1018.39 1018.97 1019.16 1019.21 1019.47 1019.63 1019.91 1020.26 1020.74
1015.38 1015.28 1015.36 1014.89 1013.22 1011.76 1010.00 1007.28 1005.56 1007.01 1007.88 1008.53 1008.81 1008.93 1008.86 1008.68 1008.38 1007.84 1007.43 1007.60 1007.61 1007.56 1007.58 1007.55 1007.70 1008.06 1008.54 1009.01 1009.67 1010.27 1011.05 1012.06 1012.98 1013.72 1014.54 1015.37 1016.08 1016.78 1017.47 1017.84 1018.31 1018.81 1019.08 1019.30 1019.50 1019.63 1019.85 1020.04 1020.36
Wind_Speed
9 10 4 4 7 8 14 16 9 9 6 3 4 7 7 14 4 2 4 4 13 14 15 15 12 15 15 12 11 12 12 14 14 15 15 15 14 14 14 14 12 12 12 12 12 11 9 9 8
9 6 5 7 9 13 11 14 10 13 11 2 3 8 9 10 3 7 8 7 13 14 14 14 10 15 15 14 11 13 12 13 14 14 14 15 15 14 13 13 12 11 11 11 11 11 10 10 9
8 9 8 7 14 16 13 0 6 14 4 7 6 4 5 2 3 5 7 12 14 11 11 13 11 14 15 14 12 11 13 13 13 14 14 14 14 14 13 12 11 11 10 10 10 10 10 9 9
7 6 8 12 19 13 17 7 6 9 4 9 10 7 5 1 2 3 11 13 14 12 10 13 13 13 14 14 13 12 12 12 13 13 15 13 13 13 13 13 14 13 13 12 13 13 13 13 12
8 7 13 17 22 20 8 11 6 9 8 10 6 12 2 5 3 5 11 9 12 10 13 14 11 14 14 14 14 13 12 12 13 15 15 14 13 13 13 12 13 14 13 13 12 11 11 12 11
9 10 12 18 21 16 13 10 13 15 10 8 5 11 6 8 8 9 10 9 10 12 13 13 10 11 12 13 14 14 13 14 15 15 15 14 15 15 14 14 13 12 12 12 11 11 11 10 10
16 12 17 20 17 15 12 8 14 16 18 17 9 10 2 8 9 9 10 10 9 11 11 11 13 11 10 11 12 14 16 17 17 16 16 16 16 15 14 13 13 12 11 11 11 10 9 8 8
11 14 22 18 17 19 5 7 14 16 19 17 10 9 13 11 13 10 11 10 10 10 10 10 9 7 11 11 14 14 16 17 18 16 15 15 14 13 11 12 11 11 10 10 9 8 7 6 5
8 13 15 19 19 13 2 8 15 13 13 12 10 13 3 1 13 12 13 13 13 11 10 9 9 8 8 9 11 13 16 16 16 13 11 9 7 9 10 10 11 10 9 9 8 8 7 7 6
11 13 18 15 11 11 10 13 14 10 13 15 10 11 3 8 11 13 15 16 16 16 10 11 11 10 8 7 9 10 12 9 9 8 8 5 6 6 8 7 7 8 4 4 4 5 5 5 5
9 19 15 15 10 9 16 16 16 17 16 15 13 13 14 12 14 13 15 16 16 12 7 9 11 10 9 7 7 5 5 5 6 8 6 5 5 4 2 3 2 2 4 4 5 5 5 6 5
18 15 17 18 17 12 17 15 18 18 18 18 9 9 6 12 15 16 15 14 10 9 10 9 12 10 9 6 6 7 6 6 5 6 6 4 3 3 2 2 2 2 3 4 4 3 4 5 6
14 17 17 15 14 18 19 20 21 20 14 14 11 7 9 12 15 14 16 14 12 11 12 12 11 11 8 9 7 7 7 6 7 6 4 3 4 3 3 3 2 2 3 3 4 4 5 5 6
5 9 14 15 18 18 20 22 21 18 14 20 19 14 13 12 13 13 14 16 15 13 16 15 15 12 13 8 9 7 6 7 6 6 5 4 3 3 3 3 2 2 3 4 4 5 5 5 5
10 15 16 18 19 17 11 20 24 24 18 22 24 20 20 18 14 14 15 15 14 13 14 16 17 14 13 11 8 6 6 7 6 6 5 4 3 3 3 2 2 3 3 4 3 4 4 5 5
7 10 9 5 3 13 9 14 16 13 18 24 22 22 20 20 19 15 14 15 15 15 17 15 11 12 12 10 8 7 7 6 6 6 5 4 4 3 3 2 3 3 2 3 4 4 5 5 6
9 10 13 12 6 6 13 12 9 4 10 14 16 15 17 20 21 17 16 16 17 18 18 18 14 13 12 12 8 8 8 6 6 5 5 5 4 3 2 2 3 3 2 3 4 4 4 6 6
9 12 12 12 3 6 14 16 19 17 15 15 14 14 16 17 19 18 17 13 16 18 18 17 14 15 12 9 8 7 6 6 6 5 4 5 4 3 2 3 3 2 2 2 3 4 4 5 5
16 13 16 16 15 11 16 19 21 18 16 17 17 17 19 20 16 12 13 13 15 17 18 19 18 16 12 10 9 7 8 6 6 5 7 5 4 4 3 2 2 1 1 3 3 4 4 3 6
13 15 17 17 10 10 17 22 22 22 19 19 21 19 20 17 16 16 15 15 16 18 19 18 19 18 14 10 9 6 8 6 7 6 6 5 5 4 3 2 2 1 1 1 3 3 3 2 4
11 13 15 17 19 17 17 18 21 18 12 12 18 18 16 17 15 15 15 16 17 18 19 20 20 20 16 14 9 7 7 7 6 7 6 6 6 4 4 3 2 1 1 2 2 3 3 2 2
14 10 13 14 10 6 1 8 14 12 12 11 14 9 9 10 12 13 16 17 17 19 19 20 19 19 16 17 13 15 10 10 7 8 7 6 6 5 4 3 2 1 0 0 1 2 2 1 2
4 4 7 9 11 13 14 9 7 6 8 11 13 10 13 9 9 10 13 15 16 15 17 19 19 19 18 17 15 12 10 8 8 8 10 8 6 6 5 4 3 2 1 2 2 1 1 1 1
2 7 8 7 7 8 15 14 6 8 4 10 14 15 14 11 11 9 9 9 10 12 14 17 20 20 19 18 16 16 14 11 9 9 8 7 6 5 5 4 3 3 3 3 2 3 3 1 1
8 6 3 6 5 6 5 6 11 17 9 9 10 14 17 16 16 13 10 6 6 10 14 15 19 18 18 18 16 15 13 13 13 12 8 9 7 6 6 6 5 5 4 3 3 3 3 2 1
8 8 5 7 7 4 4 6 2 7 7 10 10 12 18 16 16 14 11 7 6 8 11 13 16 17 17 17 16 13 13 8 8 10 8 7 6 7 8 7 5 5 5 4 3 3 2 2 1
3 7 6 6 3 5 8 10 13 3 10 7 9 13 17 18 17 16 13 9 4 5 9 12 13 14 15 16 14 13 12 11 10 10 9 7 7 7 9 8 6 6 6 5 4 3 3 2 1
7 7 3 4 6 9 6 5 9 12 9 10 10 15 20 19 19 14 12 10 6 5 7 9 11 13 14 15 13 12 13 11 11 10 10 9 8 9 9 8 7 7 6 6 5 4 4 3 1
2 4 5 6 9 9 10 6 9 8 6 11 14 17 20 20 18 16 11 9 6 5 6 7 9 11 13 13 12 13 12 11 11 10 10 9 9 9 9 8 8 7 7 6 5 5 5 4 3
9 11 10 5 9 8 12 16 14 7 10 14 18 20 18 18 19 16 12 8 7 5 5 7 8 10 12 12 12 12 12 12 11 10 10 10 9 9 8 8 7 7 7 6 5 6 5 5 4
Wind_Direction
228 239 262 249 240 234 249 233 235 258 242 220 310 264 270 251 250 304 153 91 128 147 137 157 150 146 139 136 137 133 123 119 113 109 104 98 93 89 85 79 72 73 75 76 78 74 66 64 64
213 219 231 256 246 240 236 240 201 246 252 186 263 250 253 253 61 106 147 176 151 130 152 154 147 142 141 138 140 133 128 125 121 116 111 108 103 95 87 79 70 68 66 66 66 67 62 62 59
241 229 241 228 237 243 255 279 251 251 237 224 240 238 305 307 83 146 91 155 157 140 158 128 138 145 144 143 144 137 136 131 125 121 114 110 104 100 95 88 80 70 62 57 51 49 50 51 47
199 195 254 248 244 233 251 158 302 281 215 235 242 253 153 70 145 154 151 162 134 147 135 133 139 146 146 146 143 136 133 135 131 124 117 108 104 97 93 88 82 77 71 68 63 53 43 41 41
235 226 232 233 245 258 214 275 236 264 204 201 212 248 228 159 149 154 159 159 147 156 133 147 140 143 144 144 141 139 136 129 119 108 106 108 106 102 97 93 80 75 71 68 67 64 57 51 43
205 237 238 236 244 237 255 227 253 249 241 207 232 262 268 119 169 164 157 179 165 160 142 141 137 137 138 137 137 132 127 118 111 110 105 103 97 94 92 88 87 80 73 66 61 55 49 48 44
232 217 239 252 257 257 228 219 252 252 254 241 220 275 187 169 164 172 167 171 165 147 154 153 157 143 107 107 109 110 110 109 107 105 103 99 96 95 92 89 85 81 75 66 57 49 39 30 30
234 257 250 250 256 258 208 262 239 259 253 263 270 243 251 202 155 179 167 151 153 155 157 151 135 129 123 118 103 99 102 104 106 106 106 104 102 100 99 98 78 77 73 65 57 43 27 14 26
248 243 242 244 248 245 170 238 244 246 277 245 247 249 354 287 144 175 173 173 167 160 155 129 122 114 114 121 111 105 102 107 113 120 137 158 119 111 88 78 78 72 65 54 40 27 11 335 242
223 231 243 266 271 272 264 231 267 235 241 242 228 234 220 196 158 191 189 185 187 174 151 155 149 134 138 149 148 133 140 142 134 141 136 120 108 90 97 102 99 82 52 73 30 9 307 306 347
227 247 256 255 284 299 275 265 259 261 253 258 246 230 187 214 183 210 210 203 194 176 160 156 154 149 159 161 135 151 141 137 135 134 134 132 124 142 132 111 81 35 38 13 357 1 8 353 342
245 257 262 274 284 276 257 269 266 260 254 270 307 313 270 216 218 207 212 222 195 156 170 171 164 159 173 155 160 146 154 150 148 140 140 138 138 128 114 76 64 38 20 359 1 357 346 337 334
247 262 275 268 269 267 263 261 263 260 264 267 269 257 251 236 231 218 209 201 203 185 179 177 173 167 173 168 151 153 149 159 139 141 142 154 137 129 117 90 64 40 2 12 355 350 342 333 329
319 275 275 274 265 264 259 263 258 251 258 265 262 244 248 245 241 224 210 209 202 198 187 175 177 175 174 172 153 148 158 140 148 138 132 122 127 132 111 97 71 46 16 5 352 343 333 325 322
279 278 277 258 248 242 261 265 253 255 252 252 255 254 248 255 238 230 218 215 201 201 182 188 176 179 168 162 151 145 148 153 140 128 128 132 132 110 99 83 59 40 13 343 341 332 329 323 326
261 255 271 126 286 241 215 267 276 249 238 245 252 249 248 243 244 239 221 212 199 195 183 177 181 177 168 158 151 148 149 144 138 138 136 132 111 100 91 89 63 29 8 351 344 345 338 331 324
229 268 245 261 261 242 215 263 275 356 270 251 262 254 247 252 243 230 221 206 200 194 184 181 182 182 170 154 152 147 152 146 145 146 142 139 119 99 105 80 68 15 16 355 346 347 342 326 324
281 242 259 259 147 240 257 256 268 273 268 260 266 263 259 250 241 239 222 211 203 192 188 183 177 177 169 149 144 144 149 148 145 144 144 154 135 130 135 108 87 24 6 352 354 340 337 317 332
290 284 280 280 285 265 271 270 274 272 267 258 257 256 250 244 246 250 250 209 204 195 186 185 177 175 167 162 159 159 169 158 152 157 153 149 144 139 137 114 102 25 7 7 345 342 336 340 349
263 269 273 283 294 286 282 275 269 269 263 258 258 250 249 249 239 231 223 218 197 198 190 185 181 175 173 169 165 161 158 165 159 153 160 154 150 150 137 132 134 71 326 6 357 2 350 4 14
253 260 276 280 299 288 270 277 250 259 245 258 253 254 258 259 256 231 219 216 197 198 194 189 185 177 174 170 160 148 124 137 157 170 165 167 161 152 151 143 112 114 342 344 359 7 16 352 61
278 289 286 280 289 275 56 293 299 278 270 254 261 261 275 283 267 253 236 210 209 202 194 191 184 178 178 170 160 163 167 168 183 174 165 158 161 162 152 139 136 128 67 355 22 34 358 333 54
258 333 293 287 275 287 267 253 261 227 259 288 54 360 343 343 338 303 252 241 209 203 195 189 183 178 177 175 169 170 182 170 153 157 154 159 160 164 155 151 149 140 170 132 107 127 88 68 340
281 279 257 271 268 253 249 237 266 261 315 3 25 32 29 6 344 321 296 261 211 194 198 192 183 182 178 174 177 179 177 151 151 157 162 163 166 165 164 154 162 150 149 164 136 141 117 84 58
217 253 281 225 205 256 40 279 254 288 353 30 70 50 30 23 13 1 342 278 238 208 197 193 189 184 177 175 179 180 168 160 165 161 165 163 166 171 172 173 177 161 151 152 153 142 112 108 90
217 201 230 275 269 317 194 246 137 50 66 94 88 48 22 24 20 14 4 331 260 217 199 199 191 183 179 177 178 175 159 162 163 165 162 162 167 169 155 171 172 148 159 164 173 146 125 128 161
161 223 270 277 207 256 240 269 280 217 112 105 59 19 20 15 13 9 3 0 317 243 219 204 196 186 181 177 171 166 155 162 158 157 157 160 149 146 163 163 163 159 166 170 162 141 141 142 117
259 339 228 207 256 253 234 239 256 114 53 47 38 10 6 3 359 7 359 358 333 275 236 217 201 196 185 177 171 162 161 161 149 153 158 154 147 154 159 164 161 167 168 167 164 143 140 137 127
310 259 248 293 265 264 269 249 78 70 61 16 4 359 348 347 356 355 354 344 332 297 256 217 209 189 186 177 170 158 156 153 151 156 152 154 149 154 162 164 161 171 173 174 169 153 148 152 159
285 295 319 282 257 253 264 259 272 110 23 355 345 339 348 342 342 338 341 336 326 291 255 229 206 192 187 178 166 158 149 151 152 154 153 153 154 158 163 161 162 171 174 178 174 170 161 160 166